TimeCST,TemperatureF,Dew PointF,Humidity,Sea Level PressureIn,VisibilityMPH,Wind Direction,Wind SpeedMPH,Gust SpeedMPH,PrecipitationIn,Events,Conditions,WindDirDegrees,DateUTC
12:53 AM,50.0,39.9,68,30.18,10.0,Calm,Calm,-,N/A,,Overcast,0,2012-11-20 06:53:00
2:53 AM,50.0,42.1,74,30.17,10.0,Calm,Calm,-,N/A,,Overcast,0,2012-11-20 08:53:00
3:53 AM,48.9,41.0,74,30.15,10.0,Calm,Calm,-,N/A,,Overcast,0,2012-11-20 09:53:00
4:53 AM,50.0,39.0,66,30.16,10.0,Calm,Calm,-,N/A,,Overcast,0,2012-11-20 10:53:00
6:53 AM,48.9,42.1,77,30.16,10.0,Calm,Calm,-,N/A,,Overcast,0,2012-11-20 12:53:00
7:53 AM,52.0,44.1,74,30.17,10.0,Calm,Calm,-,N/A,,Overcast,0,2012-11-20 13:53:00
8:53 AM,55.9,42.1,60,30.17,10.0,SW,3.5,-,N/A,,Overcast,230,2012-11-20 14:53:00
9:53 AM,61.0,42.1,50,30.16,10.0,SW,3.5,-,N/A,,Scattered Clouds,230,2012-11-20 15:53:00
10:53 AM,64.9,41.0,42,30.14,10.0,SW,10.4,-,N/A,,Mostly Cloudy,230,2012-11-20 16:53:00
11:53 AM,66.9,39.9,37,30.10,10.0,SSW,9.2,-,N/A,,Mostly Cloudy,210,2012-11-20 17:53:00
12:53 PM,66.9,41.0,39,30.09,10.0,WSW,4.6,-,N/A,,Clear,250,2012-11-20 18:53:00
1:53 PM,66.0,42.1,42,30.07,10.0,SW,9.2,-,N/A,,Mostly Cloudy,220,2012-11-20 19:53:00
2:53 PM,66.0,42.1,42,30.06,10.0,SSW,9.2,-,N/A,,Scattered Clouds,210,2012-11-20 20:53:00
3:53 PM,64.9,43.0,45,30.06,10.0,SW,4.6,-,N/A,,Scattered Clouds,230,2012-11-20 21:53:00
4:53 PM,62.1,43.0,50,30.07,10.0,Calm,Calm,-,N/A,,Mostly Cloudy,0,2012-11-20 22:53:00
5:53 PM,60.1,44.1,55,30.09,10.0,Calm,Calm,-,N/A,,Overcast,0,2012-11-20 23:53:00
6:53 PM,59.0,45.0,60,30.10,10.0,Calm,Calm,-,N/A,,Overcast,0,2012-11-21 00:53:00
7:53 PM,60.1,45.0,57,30.10,10.0,Calm,Calm,-,N/A,,Overcast,0,2012-11-21 01:53:00
8:53 PM,57.9,45.0,62,30.11,10.0,Calm,Calm,-,N/A,,Overcast,0,2012-11-21 02:53:00
9:53 PM,57.9,46.0,65,30.12,10.0,Calm,Calm,-,N/A,,Overcast,0,2012-11-21 03:53:00
10:53 PM,60.1,45.0,57,30.13,10.0,North,4.6,-,N/A,,Overcast,360,2012-11-21 04:53:00
11:53 PM,57.9,45.0,62,30.12,10.0,North,3.5,-,N/A,,Partly Cloudy,350,2012-11-21 05:53:00